Zurück zum Katalog

KUIPER-00609

AktivKommunikationLEO
NORAD 69770·PAYLOAD·🇺🇸 United States

Gestartet Jul 2, 2026 von Cape Canaveral Space Force Station

Loading…

Nächste Überflüge (nächste 24 Stunden)

TLE

AktuellSource: CelesTrak SupGP

Epoche: Sep 14, 2026, 16:58 UTC

1 69770C 26151H   26257.70736111 -.00000885  00000+0 -12526-3 0  2570
2 69770  51.9004 251.9957 0002135  19.9326 252.7009 14.76610803    11

Verfolge KUIPER-00609 in Echtzeit mit AllMySat

Download on the App Store